| time (UTC) | temp C | wind direction | speed KPH | gust KPH | rain 1hr cm | rain 24hr cm | rain mn cm | humidity % | barometer mb |
| 20260506044517 | 3 | 252 | 8.0 | 0.0 | 0.00 | 0.00 | 0.05 | 74 | 1011.9 |
| 20260506043014 | 3 | 274 | 12.9 | 0.0 | 0.00 | 0.00 | 0.05 | 73 | 1011.9 |
| 20260506041508 | 3 | 280 | 14.5 | 0.0 | 0.00 | 0.00 | 0.05 | 72 | 1012.0 |
| 20260506040007 | 3 | 274 | 9.7 | 0.0 | 0.00 | 0.00 | 0.05 | 72 | 1012.0 |
| 20260506034508 | 2 | 269 | 6.4 | 0.0 | 0.00 | 0.00 | 0.05 | 72 | 1011.9 |
| 20260506033007 | 3 | 270 | 6.4 | 0.0 | 0.00 | 0.00 | 0.05 | 71 | 1011.9 |
| 20260506031513 | 3 | 271 | 4.8 | 0.0 | 0.00 | 0.00 | 0.05 | 70 | 1011.8 |
| 20260506030007 | 2 | 271 | 6.4 | 0.0 | 0.00 | 0.00 | 0.05 | 71 | 1011.9 |
| 20260506024504 | 2 | 271 | 14.5 | 0.0 | 0.00 | 0.00 | 0.05 | 74 | 1012.2 |
| 20260506023002 | 2 | 286 | 16.1 | 0.0 | 0.00 | 0.00 | 0.05 | 82 | 1012.3 |
| 20260506021502 | 3 | 283 | 19.3 | 0.0 | 0.00 | 0.00 | 0.05 | 84 | 1012.3 |
| 20260506020059 | 2 | 169 | 3.2 | 0.0 | 0.00 | 0.00 | 0.05 | 87 | 1012.2 |
| 20260506014602 | 2 | 103 | 1.6 | 0.0 | 0.00 | 0.00 | 0.05 | 87 | 1012.3 |
| 20260506013100 | 2 | 103 | 3.2 | 0.0 | 0.00 | 0.00 | 0.05 | 87 | 1012.3 |
| 20260506011600 | 2 | 55 | 3.2 | 0.0 | 0.00 | 0.00 | 0.03 | 86 | 1012.3 |
| 20260506010100 | 2 | 10 | 1.6 | 0.0 | 0.00 | 0.00 | 0.03 | 86 | 1012.4 |
| 20260506004627 | 2 | 10 | 0.0 | 0.0 | 0.00 | 0.00 | 0.03 | 86 | 1012.3 |
| 20260506003057 | 2 | 10 | 1.6 | 0.0 | 0.00 | 0.00 | 0.03 | 85 | 1012.3 |
| 20260506001559 | 2 | 346 | 1.6 | 0.0 | 0.00 | 0.00 | 0.03 | 85 | 1012.4 |
| 20260506000054 | 2 | 346 | 1.6 | 0.0 | 0.00 | 0.00 | 0.03 | 86 | 1012.4 |
| 20260505234613 | 2 | 346 | 0.0 | 0.0 | 0.00 | 0.00 | 0.03 | 86 | 1012.4 |
| 20260505233053 | 2 | 346 | 0.0 | 0.0 | 0.00 | 0.00 | 0.03 | 86 | 1012.4 |
| 20260505231553 | 2 | 346 | 4.8 | 0.0 | 0.00 | 0.00 | 0.03 | 86 | 1012.5 |
| 20260505230053 | 2 | 346 | 3.2 | 0.0 | 0.00 | 0.00 | 0.03 | 85 | 1012.4 |
| 20260505224551 | 2 | 336 | 6.4 | 0.0 | 0.00 | 0.00 | 0.03 | 84 | 1012.4 |
| 20260505223059 | 3 | 348 | 8.0 | 0.0 | 0.00 | 0.00 | 0.03 | 82 | 1012.5 |
| 20260505221558 | 3 | 278 | 9.7 | 0.0 | 0.00 | 0.00 | 0.00 | 77 | 1012.4 |
| 20260505220046 | 3 | 300 | 0.0 | 0.0 | 0.00 | 0.00 | 0.23 | 72 | 1012.4 |
| 20260505214552 | 3 | 300 | 0.0 | 0.0 | 0.00 | 0.00 | 0.23 | 71 | 1012.4 |
| 20260505213043 | 3 | 300 | 0.0 | 0.0 | 0.00 | 0.00 | 0.23 | 70 | 1012.3 |
| 20260505211539 | 3 | 300 | 0.0 | 0.0 | 0.00 | 0.00 | 0.23 | 70 | 1012.2 |
| 20260505210039 | 3 | 300 | 0.0 | 0.0 | 0.00 | 0.00 | 0.23 | 70 | 1012.3 |
| 20260505204538 | 3 | 300 | 0.0 | 0.0 | 0.00 | 0.00 | 0.23 | 71 | 1012.3 |
| 20260505203038 | 3 | 300 | 0.0 | 0.0 | 0.00 | 0.00 | 0.23 | 70 | 1012.3 |
| 20260505201538 | 3 | 300 | 0.0 | 0.0 | 0.00 | 0.00 | 0.23 | 69 | 1012.3 |
| 20260505200037 | 3 | 300 | 0.0 | 0.0 | 0.00 | 0.00 | 0.23 | 69 | 1012.4 |
| 20260505194538 | 3 | 300 | 1.6 | 0.0 | 0.00 | 0.00 | 0.23 | 69 | 1012.2 |
| 20260505193035 | 3 | 300 | 1.6 | 0.0 | 0.00 | 0.00 | 0.23 | 68 | 1012.1 |
| 20260505191535 | 4 | 300 | 1.6 | 0.0 | 0.00 | 0.00 | 0.23 | 66 | 1011.9 |
| 20260505190041 | 5 | 300 | 1.6 | 0.0 | 0.00 | 0.00 | 0.23 | 65 | 1011.8 |
| 20260505184534 | 5 | 298 | 4.8 | 0.0 | 0.00 | 0.00 | 0.23 | 61 | 1011.8 |
| 20260505183043 | 5 | 333 | 6.4 | 0.0 | 0.00 | 0.00 | 0.23 | 60 | 1011.7 |
| 20260505181537 | 6 | 347 | 6.4 | 0.0 | 0.00 | 0.00 | 0.23 | 58 | 1011.6 |
| 20260505180031 | 6 | 293 | 6.4 | 0.0 | 0.00 | 0.00 | 0.23 | 60 | 1011.5 |
| 20260505174530 | 6 | 274 | 8.0 | 0.0 | 0.00 | 0.00 | 0.23 | 59 | 1011.4 |
| 20260505173038 | 6 | 325 | 8.0 | 0.0 | 0.00 | 0.00 | 0.23 | 60 | 1011.3 |
| 20260505171533 | 6 | 310 | 8.0 | 0.0 | 0.00 | 0.00 | 0.23 | 62 | 1011.3 |
| 20260505170033 | 6 | 285 | 8.0 | 0.0 | 0.00 | 0.00 | 0.23 | 59 | 1011.3 |
| 20260505164529 | 6 | 286 | 14.5 | 0.0 | 0.00 | 0.00 | 0.23 | 57 | 1011.2 |
| 20260505163027 | 6 | 273 | 11.3 | 0.0 | 0.00 | 0.00 | 0.23 | 60 | 1011.1 |
| 20260505161528 | 6 | 302 | 16.1 | 0.0 | 0.00 | 0.00 | 0.23 | 59 | 1011.0 |
| 20260505153027 | 6 | 249 | 19.3 | 0.0 | 0.00 | 0.00 | 0.23 | 62 | 1010.9 |
| 20260505151524 | 6 | 299 | 19.3 | 0.0 | 0.00 | 0.00 | 0.23 | 62 | 1010.8 |
| 20260505124515 | 5 | 244 | 6.4 | 0.0 | 0.00 | 0.00 | 0.20 | 84 | 1011.1 |
| 20260505123012 | 4 | 284 | 8.0 | 0.0 | 0.00 | 0.00 | 0.20 | 87 | 1011.1 |
| 20260505121512 | 3 | 248 | 6.4 | 0.0 | 0.00 | 0.00 | 0.20 | 89 | 1010.9 |
| 20260505120010 | 2 | 276 | 4.8 | 0.0 | 0.00 | 0.00 | 0.18 | 89 | 1010.9 |
| 20260505114510 | 1 | 298 | 11.3 | 0.0 | 0.00 | 0.00 | 0.13 | 87 | 1011.1 |
| 20260505113008 | 2 | 317 | 16.1 | 0.0 | 0.00 | 0.00 | 0.13 | 82 | 1011.0 |
| 20260505111507 | 5 | 223 | 14.5 | 0.0 | 0.00 | 0.00 | 0.13 | 86 | 1010.7 |
| 20260505101506 | 3 | 207 | 8.0 | 0.0 | 0.00 | 0.00 | 0.10 | 86 | 1010.5 |
| 20260505100004 | 3 | 218 | 11.3 | 0.0 | 0.00 | 0.00 | 0.08 | 85 | 1010.6 |
| 20260505094604 | 4 | 233 | 11.3 | 0.0 | 0.00 | 0.00 | 0.08 | 87 | 1010.5 |
| 20260505093103 | 3 | 219 | 9.7 | 0.0 | 0.00 | 0.00 | 0.08 | 89 | 1010.4 |
| 20260505091612 | 3 | 202 | 9.7 | 0.0 | 0.00 | 0.00 | 0.08 | 88 | 1010.7 |
| 20260505090056 | 2 | 226 | 11.3 | 0.0 | 0.00 | 0.00 | 0.08 | 89 | 1010.6 |
| 20260505084557 | 2 | 242 | 6.4 | 0.0 | 0.00 | 0.00 | 0.08 | 88 | 1010.5 |
| 20260505083056 | 2 | 224 | 3.2 | 0.0 | 0.00 | 0.00 | 0.08 | 88 | 1010.5 |
| 20260505081556 | 1 | 225 | 1.6 | 0.0 | 0.00 | 0.00 | 0.08 | 88 | 1010.4 |
| 20260505080105 | 1 | 225 | 4.8 | 0.0 | 0.00 | 0.00 | 0.05 | 87 | 1010.4 |
| 20260505074554 | 1 | 211 | 9.7 | 0.0 | 0.00 | 0.00 | 0.05 | 84 | 1010.6 |
| 20260505073055 | 2 | 197 | 6.4 | 0.0 | 0.00 | 0.00 | 0.05 | 79 | 1010.4 |
| 20260505071555 | 3 | 238 | 1.6 | 0.0 | 0.00 | 0.00 | 0.03 | 76 | 1010.3 |
| 20260505070056 | 2 | 238 | 0.0 | 0.0 | 0.00 | 0.00 | 0.03 | 76 | 1010.3 |
| 20260505064552 | 2 | 238 | 1.6 | 0.0 | 0.00 | 0.00 | 0.03 | 78 | 1010.3 |
| 20260505063110 | 2 | 238 | 8.0 | 0.0 | 0.00 | 0.00 | 0.03 | 77 | 1010.3 |
| 20260505061555 | 2 | 237 | 9.7 | 0.0 | 0.00 | 0.00 | 0.03 | 75 | 1010.3 |
| 20260505060054 | 3 | 280 | 6.4 | 0.0 | 0.00 | 0.00 | 0.03 | 67 | 1010.2 |
| 20260505054558 | 3 | 265 | 6.4 | 0.0 | 0.00 | 0.00 | 0.03 | 65 | 1010.3 |
| 20260505053055 | 3 | 261 | 8.0 | 0.0 | 0.00 | 0.00 | 0.03 | 68 | 1010.2 |
| 20260505051543 | 2 | 240 | 3.2 | 0.0 | 0.00 | 0.00 | 0.03 | 81 | 1010.3 |